sat.trackr.live / text

‹ back to catalog

USA 169 (MILSTAR-2 4)

NORAD 27711 · 2003-012A

PAYLOAD ACTIVE UNKNOWN

§ Identity

Operator
Country
US
Launch date
2003-04-08
Launch site
AFETR
Launch vehicle
Mass (kg)
RCS (m²)

Purposes: comms

External: N2YO · Heavens-Above · Gunter

§ Orbital elements

Epoch: 2026-05-24T23:20:00.100032Z

Period
1,436.08 min
Inclination
12.3162°
Eccentricity
0.0101691
Mean motion
1.00273010 rev/d
Perigee alt
35,357.5 km
Apogee alt
36,215.0 km
Semi-major
42,164.4 km
B*
0.0000e+0
RAAN
30.0345°
Arg perigee
8.0259°
Mean anomaly
346.6480°
Rev number
3,271

§ Raw data

USA 169 (MILSTAR-2 4)1 27711U 03012A   26144.97222338 -.00000270  00000+0  00000+0 0  99952 27711  12.3162  30.0345 0101691   8.0259 346.6480  1.00273010 32710

JSON: /api/v1/satellites/27711 · /tle

For live sub-satellite position, see the globe view (requires WebGL).

§ Visibility from observer

Set your observer location to see the next 7 days of passes ≥ 10°. The values pass through the URL so the page stays shareable.

No JS? Fill the form by hand. The geolocation button needs JavaScript.